www.pogodaiklimat.ru

Погода и климат >> Архив погоды >> Словакия >> Мильхостов


ПОГОДА в Мильхостове

  • Прогноз погоды в Мильхостове
  • Монитор погоды в Мильхостове

АРХИВ ПОГОДЫ в Мильхостове

Время (UTC), дата Ветер
(напр.,м/с)
 
Видим.   Явления Облачность Т
(С)
Тd
(С)
f
(%)
Тe
(С)
Тes
(С)
Комфортность P
(гПа)
Po
(гПа)
Тmin
(С)
Tmax
(С)
R
(мм)
R24
(мм)
S
(см)
10 10.08 С 3 30 км 5/0
[Ac trans Ci fib]
+27.4 +17.9 56 +32 +41 очень
душно
1015.4 1003.3
11 10.08 В 4 30 км 8/1 1300 м
[Cu med, cong Ac trans Ci sp]
+28.7 +18.2 53 +33 +39 очень
душно
1015.0 1003.0
12 10.08 В 3 30 км 8/4 1300 м
[Cu med, cong Ac trans Ci sp]
+29.9 +19.0 52 +35 +40 очень
душно
1014.5 1002.6
13 10.08 ЮЗ 4 30 км 8/6 1300 м
[Cu med, cong Ci sp]
+31.7 +18.0 44 +36 +39 очень
душно
1013.9 1002.0
14 10.08 ЮЗ 3 30 км 5/5 1300 м
[Cu med, cong Ci fib]
+32.4 +18.2 43 +37 +40 очень
душно
1013.8 1002.0
15 10.08 Ю 4 30 км 3/3 1300 м
[Cu hum Ac lent]
+32.2 +18.4 44 +37 +39 очень
душно
1013.6 1001.8
16 10.08 ЮЗ 3 н/о н/о +31.8 +18.4 45 +37 +37 очень
душно
1013.6 1001.7
17 10.08 Ю 4 н/о н/о +29.9 +19.6 54 +36 +36 очень
душно
1013.7 1001.8
18 10.08 ЮВ 3 20 км 5/5 1080 м
[Sc diur, vesp Ac trans]
+27.7 +19.8 62 +34 +34 очень
душно
1014.3 1002.3 +32.6
19 10.08 ЮВ 3 20 км 5/3 1080 м
[Sc Ac trans]
+25.8 +19.9 70 +32 +32 очень
душно
1014.7 1002.6
20 10.08 20 км 5/3 1080 м
[Sc Ac trans]
+24.9 +19.7 73 1014.8 1002.7
21 10.08 н/о н/о +22.6 +19.6 83 1014.8 1002.6
22 10.08 н/о н/о +21.9 +19.4 86 1015.3 1003.0
23 10.08 н/о н/о +21.7 +19.6 88 1014.9 1002.6
00 11.08 нст 2 н/о н/о +22.0 +19.9 88 +28 +28 душно 1014.8 1002.6
01 11.08 н/о н/о +21.2 +19.7 91 1015.0 1002.7
02 11.08 С 10 н/о н/о +22.4 +18.2 77 +28 +28 душно 1016.5 1004.2
03 11.08 С 6 н/о н/о +20.7 +18.1 85 +24 +24 комфорт 1016.8 1004.5
04 11.08 С 6 н/о н/о +20.9 +17.7 82 +25 +25 комфорт 1017.0 1004.7
05 11.08 С 6 н/о н/о +21.5 +17.9 80 +26 +26 душно 1017.5 1005.2
06 11.08 С 6 40 км 3/1 1200 м
[Sc Ac lent]
+22.5 +17.9 75 +28 +29 душно 1017.8 1005.5 +20.5
07 11.08 С 6 40 км 8/4 1080 м
[Cu Sc Ac lent]
+23.5 +18.4 73 +28 +29 душно 1018.0 1005.8
08 11.08 С 7 40 км 8/3 1080 м
[Cu Sc Ac trans]
+25.0 +17.7 64 +29 +30 душно 1018.4 1006.2
09 11.08 С 6 40 км 5/1 1080 м
[Cu Sc Ac trans]
+26.0 +16.3 55 +29 +33 душно 1018.2 1006.1
10 11.08 С 6 40 км 5/1 1080 м
[Cu Sc Ac trans]
+27.5 +16.8 52 +31 +35 душно 1018.1 1006.0
11 11.08 С 7 40 км 3/1 1080 м
[Cu hum Ac lent]
+27.1 +16.4 52 +31 +34 душно 1017.8 1005.7
12 11.08 С 6 40 км 6/1 1080 м
[Cu hum Ac lent]
+28.0 +17.0 51 +32 +34 душно 1017.6 1005.5
13 11.08 С 5 40 км 5/1 1080 м
[Cu hum Ac lent]
+28.8 +17.0 49 +33 +36 очень
душно
1017.1 1005.1
14 11.08 С 4 40 км 3/1 1080 м
[Cu hum Ac lent]
+29.2 +17.1 48 +33 +37 очень
душно
1016.7 1004.7
15 11.08 С 3 40 км 3/1 1080 м
[Cu hum Ac lent]
+29.3 +16.8 47 +33 +36 душно 1016.5 1004.5
16 11.08 С 3 н/о н/о +28.7 +17.3 50 +33 +33 очень
душно
1015.9 1003.9
17 11.08 С 3 н/о н/о +27.4 +16.7 52 +31 +31 душно 1016.1 1004.0
18 11.08 СЗ 1 40 км 1/1 1200 м
[Sc diur, vesp]
+25.9 +16.5 56 +29 +29 душно 1016.1 1004.0 +29.4
19 11.08 СЗ 2 20 км ясно +23.6 +17.4 68 +27 +27 жарко 1016.2 1004.0
20 11.08 20 км ясно +21.4 +17.4 78 1016.3 1004.0
21 11.08 С 2 н/о н/о +20.0 +16.8 82 +23 +23 комфорт 1016.3 1003.9
22 11.08 н/о н/о +20.0 +17.0 83 1016.3 1003.9
23 11.08 штиль 0 н/о н/о +19.3 +16.7 85 +21 +21 комфорт 1016.3 1003.9
00 12.08 штиль 0 н/о н/о +18.0 +16.5 91 +18 +18 1016.1 1003.6
01 12.08 н/о н/о +18.0 +16.3 90 1016.1 1003.6
02 12.08 С 1 н/о н/о +17.5 +16.0 91 +19 +19 1015.9 1003.4
03 12.08 н/о н/о +17.5 +16.4 93 1015.9 1003.4
04 12.08 СЗ 1 н/о н/о +17.7 +16.4 92 +19 +19 1015.9 1003.4
05 12.08 С 2 н/о н/о +19.7 +17.5 87 +23 +23 комфорт 1015.8 1003.4
06 12.08 С 2 35 км 1/1 1200 м
[Sc]
+22.0 +18.2 79 +27 +30 душно 1015.7 1003.4 +17.3
07 12.08 35 км 9/6 1200 м
[Sc Ac trans]
+25.4 +19.5 70 1015.5 1003.4
08 12.08 ЮВ 3 35 км 1/1 1200 м
[Sc]
+27.2 +19.6 63 +33 +41 очень
душно
1015.2 1003.2
09 12.08 нст 2 35 км 1/1 1000 м
[Cu hum]
+29.5 +20.9 60 +37 +49 очень
душно
1014.8 1002.9
10 12.08 ЮВ 3 35 км 1/1 1080 м
[Cu med, cong]
+31.1 +20.7 54 +38 +49 очень
душно
1014.3 1002.4
11 12.08 В 4 35 км 4/4 1080 м
[Cu med, cong]
+32.4 +20.7 50 +39 +45 очень
душно
1013.4 1001.6
12 12.08 ЮВ 5 35 км 4/4 1080 м
[Cu med, cong]
+33.9 +19.6 43 +40 +44 очень
душно
1012.8 1001.0
13 12.08 Ю 4 35 км 4/4 1080 м
[Cu med, cong]
+34.5 +18.6 39 +39 +43 очень
душно
1012.7 1001.0
14 12.08 Ю 4 35 км 3/3 1080 м
[Cu med, cong]
+34.3 +18.8 40 +39 +43 очень
душно
1012.3 1000.6
15 12.08 Ю 5 35 км 3/3 1080 м
[Cu med, cong]
+33.6 +19.0 42 +39 +40 очень
душно
1012.1 1000.3
16 12.08 Ю 5 н/о н/о +33.1 +18.5 42 +38 +38 очень
душно
1011.7 999.9
17 12.08 Ю 2 н/о н/о +31.8 +19.1 47 +37 +37 очень
душно
1011.6 999.8
18 12.08 ЮВ 2 30 км 1/1 1080 м
[Sc diur, vesp]
+28.7 +20.5 61 +35 +35 очень
душно
1011.5 999.6 +34.8
19 12.08 20 км ясно +26.6 +20.2 68 1011.8 999.8
20 12.08 З 1 20 км ясно +26.0 +19.9 69 +32 +32 очень
душно
1012.1 1000.0
21 12.08 н/о н/о +23.4 +19.8 80 1012.1 999.9
22 12.08 н/о н/о +22.5 +19.9 85 1011.9 999.7
23 12.08 н/о н/о +22.1 +19.3 84 1011.8 999.6
00 13.08 нст 1 н/о н/о +21.4 +19.3 88 +26 +26 душно 1011.1 998.9
01 13.08 н/о н/о +21.1 +19.2 89 1011.2 998.9
02 13.08 ЮВ 2 н/о н/о +19.8 +18.6 93 +23 +23 комфорт 1011.1 998.8
03 13.08 н/о н/о +19.9 +18.2 90 1011.3 999.0
04 13.08 С 3 н/о н/о +19.1 +18.4 96 +21 +21 комфорт 1011.8 999.5
05 13.08 С 5 н/о н/о +22.2 +19.8 86 +28 +28 душно 1012.7 1000.5
06 13.08 С 7 20 км 5/3 1300 м
[Cu med, cong Ac trans]
+23.1 +18.6 76 +29 +30 очень
душно
1012.9 1000.7 +18.6
07 13.08 С 7 25 км 3/0
[Ac trans Ci fib]
+24.8 +18.5 68 +29 +31 душно 1012.9 1000.8
08 13.08 С 8 30 км 3/0
[Ac trans Ci fib]
+25.1 +18.1 65 +29 +31 душно 1013.1 1001.0
09 13.08 С 9 30 км 4/0
[Ac trans Ci fib]
+26.0 +17.9 61 +30 +31 душно 1013.5 1001.4
10 13.08 С 8 30 км 9/3 1500 м
[Sc Ac trans Ci sp]
+25.1 +17.6 63 +29 +30 душно 1013.6 1001.5
11 13.08 С 9 30 км 9/3 1500 м
[Sc Ac As]
+25.6 +17.3 60 +30 +30 душно 1013.6 1001.5
12 13.08 С 8 25 км в посл. час гроза 9/4 900 м
[Cb cap Ac cuf]
+23.8 +16.8 65 +27 +28 жарко 1013.0 1000.8
13 13.08 СЗ 7 20 км 9/6 1080 м
[Sc Ac As]
+22.9 +16.2 66 +27 +28 душно 1013.0 1000.8
14 13.08 С 8 20 км гроза без осадков 9/5 900 м
[Cb cap Ac As]
+21.6 +16.8 74 +26 +26 душно 1013.4 1001.1
15 13.08 СЗ 7 20 км гроза, ливневой дождь 9/6 800 м
[Cb cap Ac As]
+20.1 +16.9 82 +23 +23 комфорт 1015.0 1002.6
16 13.08 С 7 20 км в посл. час гроза {ливн. осадки} 9/6 1000 м
[Cu Sc Ac As]
+19.3 +17.3 88 +21 +21 комфорт 1014.8 1002.4
17 13.08 С 6 20 км 9/6 1200 м
[Sc Ac As]
+18.9 +17.0 89 +20 +20 1013.2 1000.8
18 13.08 С 5 10 км в посл. час гроза {ливн. осадки} 9/9 900 м
[Cb cap]
+18.3 +17.8 97 +18 +18 1014.1 1001.7 +26.6 8
19 13.08 С 5 15 км 9/9 1000 м
[Sc]
+18.0 +17.5 97 +18 +18 1014.0 1001.6
20 13.08 С 6 15 км 9/5 1080 м
[Sc Ac trans]
+18.3 +17.6 96 +18 +18 1013.6 1001.2
21 13.08 С 6 н/о н/о +18.5 +16.8 90 +19 +19 1013.2 1000.8
22 13.08 СЗ 5 н/о н/о +18.7 +16.8 89 +19 +19 1012.6 1000.2
23 13.08 СЗ 7 н/о н/о +19.0 +16.6 86 +20 +20 1011.7 999.3
06 14.08 С 5 12 км в посл. час ливневой дождь {гроза} 10/10 800 м
[Cb cap]
+18.0 +17.0 94 +18 +18 1010.5 998.1 +17.2 38
07 14.08 СЗ 4 12 км 9/9 800 м
[Cb cap]
+18.3 +17.0 92 +19 +19 1011.0 998.6
08 14.08 С 6 10 км слаб. ливневой дождь 10/10 700 м
[Cb cap]
+17.8 +16.8 94 +17 +17 1010.7 998.3
09 14.08 СЗ 6 10 км в посл. час ливневой дождь 10/10 900 м
[Sc]
+18.1 +16.6 91 +18 +18 1011.0 998.6
10 14.08 З 4 10 км слаб. дождь 10/10 900 м
[Sc]
+17.2 +15.6 90 +17 +17 1012.2 999.7
11 14.08 С 8 10 км слаб. дождь 10/10 900 м
[Sc]
+16.1 +13.8 86 +14 +14 1012.1 999.6
12 14.08 СЗ 8 10 км слаб. дождь 10/10 900 м
[Sc]
+15.8 +13.6 87 +14 +14 1012.9 1000.4 10
13 14.08 СЗ 8 20 км в посл. час дождь 9/9 1080 м
[Sc]
+16.4 +13.5 83 +15 +15 1013.6 1001.1
14 14.08 СЗ 8 20 км 9/9 1080 м
[Sc]
+15.6 +12.5 82 +14 +14 1014.6 1002.0
15 14.08 СЗ 7 20 км {дождь} 9/9 1200 м
[Sc]
+15.3 +12.4 83 +13 +14 1015.5 1002.9
16 14.08 С 6 н/о н/о +15.5 +12.6 83 +14 +14 1015.3 1002.7
17 14.08 С 7 н/о н/о +15.4 +12.2 81 +14 +14 1015.7 1003.1
18 14.08 СЗ 6 20 км {дождь} 9/9 1200 м
[Sc]
+15.3 +11.9 80 +14 +14 1016.0 1003.4 +18.4 10
19 14.08 С 5 15 км 9/9 1200 м
[Sc]
+14.9 +11.9 82 +13 +13 1016.7 1004.1
20 14.08 СЗ 5 15 км 9/9 1200 м
[Sc]
+15.0 +11.4 79 +14 +14 1016.6 1004.0
21 14.08 СЗ 5 н/о н/о +15.1 +11.1 77 +14 +14 1016.8 1004.2
22 14.08 СЗ 5 н/о н/о +14.9 +11.7 81 +13 +13 1016.8 1004.2
23 14.08 С 6 н/о н/о +14.7 +11.7 82 +13 +13 1016.2 1003.6
00 15.08 С 5 н/о н/о +14.2 +11.0 81 +12 +12 1016.4 1003.8
01 15.08 СЗ 5 н/о н/о +13.4 +10.4 82 +11 +11 1016.8 1004.1
02 15.08 С 4 н/о н/о +12.4 +10.1 86 +10 +10 1016.8 1004.1
03 15.08 С 3 н/о н/о +11.9 +10.0 88 +10 +10 1016.9 1004.1
04 15.08 С 6 н/о н/о +12.9 +10.1 83 +10 +10 1016.9 1004.2
05 15.08 С 6 н/о н/о +13.2 +10.2 82 +11 +11 1017.1 1004.4
06 15.08 С 7 40 км 3/1 1000 м
[Sc Ci fib]
+15.4 +11.2 76 +14 +15 1016.7 1004.1 +11.6
07 15.08 С 6 40 км 5/1 1000 м
[Cu hum Ci sp]
+17.2 +12.1 72 +16 +19 1016.7 1004.2
08 15.08 С 7 40 км 8/1 1000 м
[Cu hum Ci sp]
+18.4 +12.2 67 +18 +20 1016.5 1004.0
09 15.08 С 5 40 км 8/1 1000 м
[Cu hum Ci sp]
+20.0 +12.5 62 +22 +27 комфорт 1016.1 1003.7
10 15.08 С 6 40 км 8/1 1000 м
[Cu hum Ci sp]
+21.1 +10.3 50 +23 +27 комфорт 1015.6 1003.3
11 15.08 С 6 40 км 8/1 1000 м
[Cu hum Ci sp]
+21.9 +10.7 49 +24 +28 комфорт 1015.3 1003.0
12 15.08 С 5 40 км 9/3 1000 м
[Cu hum Cs]
+22.4 +9.9 45 +24 +28 комфорт 1015.0 1002.7
13 15.08 С 4 40 км 9/4 1000 м
[Cu med, cong Cs]
+22.8 +10.6 46 +25 +28 комфорт 1014.8 1002.5
14 15.08 СВ 4 40 км 8/4 1000 м
[Cu med, cong Ci sp]
+21.5 +10.7 50 +23 +26 комфорт 1014.8 1002.5
15 15.08 В 3 40 км 9/8 1000 м
[Cu Sc Ci sp]
+20.7 +10.8 53 +23 +23 комфорт 1014.8 1002.5
16 15.08 В 4 н/о н/о +21.9 +10.7 49 +24 +24 комфорт 1014.7 1002.4
17 15.08 В 3 н/о н/о +20.4 +11.6 57 +23 +23 комфорт 1014.9 1002.5
18 15.08 В 1 40 км 1/1 1000 м
[Sc diur, vesp]
+18.4 +11.7 65 +20 +20 1015.4 1002.9 +23.0
19 15.08 СЗ 2 20 км 1/1 1000 м
[Sc diur, vesp]
+16.1 +12.1 77 +16 +16 1016.1 1003.5
20 15.08 20 км 1/1 1000 м
[Sc diur, vesp]
+14.1 +11.4 84 1016.2 1003.6
21 15.08 н/о н/о +12.3 +10.7 90 1016.4 1003.7
22 15.08 н/о н/о +11.9 +10.5 91 1016.4 1003.7
23 15.08 н/о н/о +11.2 +10.3 94 1016.4 1003.6
00 16.08 нст 1 н/о н/о +11.6 +10.3 92 +11 +11 1016.4 1003.6
01 16.08 н/о н/о +11.6 +10.3 92 1016.3 1003.5
02 16.08 н/о н/о +11.1 +10.0 93 1016.3 1003.5
03 16.08 СЗ 2 н/о н/о +11.0 +9.9 93 +10 +10 1016.3 1003.5
04 16.08 СЗ 2 н/о н/о +11.3 +9.9 91 +10 +10 1016.4 1003.6
05 16.08 СЗ 2 н/о н/о +12.8 +10.9 88 +12 +12 1016.5 1003.8
06 16.08 С 3 30 км 3/0
[Ac trans Ci fib]
+14.5 +11.1 80 +14 +16 1016.6 1004.0 +10.9
07 16.08 С 3 30 км 3/0
[Ci fib]
+16.6 +12.0 74 +16 +22 1016.3 1003.8
08 16.08 С 2 40 км 3/1 1500 м
[Cu hum Ci fib]
+19.4 +11.7 61 +21 +30 комфорт 1016.2 1003.8
09 16.08 нст 2 40 км 3/1 1500 м
[Cu hum Ci fib]
+21.4 +11.2 52 +23 +34 комфорт 1015.9 1003.6
10 16.08 40 км 3/1 1300 м
[Cu med, cong Ci fib]
+23.8 +10.2 42 1015.4 1003.2
11 16.08 40 км 3/3 1300 м
[Cu med, cong]
+24.5 +9.7 39 1015.2 1003.0
12 16.08 нст 2 40 км 5/4 1300 м
[Cu med, cong Ac trans]
+24.3 +10.2 41 +25 +32 комфорт 1015.1 1002.9
13 16.08 40 км 4/3 1300 м
[Cu med, cong Ac trans]
+25.8 +10.4 38 1014.5 1002.4
14 16.08 С 3 40 км 4/3 1300 м
[Cu med, cong Ac trans]
+25.0 +8.9 36 +26 +29 жарко 1014.4 1002.2
15 16.08 С 2 40 км 4/4 1300 м
[Cu Sc Ac trans]
+24.9 +10.0 39 +26 +28 жарко 1014.3 1002.1
16 16.08 н/о н/о +24.2 +11.2 44 1014.4 1002.2
17 16.08 н/о н/о +22.7 +10.5 46 1014.7 1002.4
18 16.08 СЗ 2 25 км 4/3 1200 м
[Sc diur, vesp Ac lent]
+19.6 +13.1 66 +22 +22 комфорт 1015.2 1002.8 +25.9
19 16.08 20 км 3/1 1200 м
[Sc Ac trans]
+18.0 +13.1 73 1015.9 1003.4
20 16.08 С 1 20 км 5/3 1200 м
[Sc Ac trans]
+16.1 +13.4 84 +17 +17 1016.2 1003.6
21 16.08 С 2 н/о н/о +15.7 +12.8 83 +16 +16 1016.6 1004.0
22 16.08 С 2 н/о н/о +16.1 +13.2 83 +16 +16 1016.9 1004.3
23 16.08 С 3 н/о н/о +16.2 +14.0 87 +16 +16 1016.6 1004.1
00 17.08 нст 2 н/о н/о +16.1 +13.6 85 +16 +16 1016.6 1004.0
01 17.08 С 2 н/о н/о +16.1 +13.6 85 +16 +16 1016.6 1004.0
02 17.08 н/о н/о +15.6 +13.1 85 1016.7 1004.1
03 17.08 н/о н/о +14.3 +12.2 87 1017.0 1004.3
04 17.08 н/о н/о +14.8 +12.5 86 1017.2 1004.6
05 17.08 С 2 н/о н/о +15.3 +13.0 86 +15 +15 1017.2 1004.6
06 17.08 С 2 40 км 9/9 1200 м
[Sc]
+16.9 +12.6 76 +17 +18 1017.4 1004.9 +14.2
07 17.08 С 2 40 км 9/9 1200 м
[Sc]
+18.6 +13.0 70 +20 +20 1017.8 1005.3
08 17.08 С 2 40 км 8/3 1200 м
[Sc Ac trans]
+19.8 +13.0 65 +22 +26 комфорт 1017.7 1005.3
09 17.08 40 км 5/1 1200 м
[Sc Ac trans]
+23.0 +9.4 42 1017.4 1005.1

 

Местоположение метеостанции Мильхостов (Словакия): широта 48.67 долгота 21.73 высота над уровнем моря 106 м.

В архиве по умолчанию представлена погода в Мильхостове за последнюю неделю. Архивные данные за месяц целиком и за предыдущие месяцы, начиная с января 2011 года, Вы можете получить, выбрав интересующий диапазон дат из раскрывающегося списка и нажав кнопку "Ввод!".


*Определитесь, кто Вы:
робот инопланетянин человек

Внимание! Время в таблицах - всемирное. Для получения местного времени необходимо прибавить поправку, которая равна 1 ч.

Смотрите также архив погоды в соседних городах и на ближайших метеорологических станциях:

Погода в Каменице-над-Сирочью (Словакия) (35 км)
Погода в Кошице (Словакия) (37 км)
Погода в Ужгороде (Закарпатская область, Украина) (40 км)
Погода в Захони (Венгрия) (44 км)
Погода в Прешове (Словакия) (50 км)
Погода в Перечине (Закарпатская область, Украина) (55 км)
Погода на Станции Kojsovska Hola (Словакия) (56 км)
Погода в Великом Березном (Закарпатская область, Украина) (60 км)
Погода в Стропкове (Словакия) (61 км)
Погода в Ньиредьхазе (Венгрия) (79 км)

Пояснения к столбцам:

Ветер - указаны скорость ветра в м/с - средняя за 10 мин, порывы в срок и между сроками (в фигурных скобках) и направление, откуда дует ветер: С - северный, СВ - северо-восточный, В - восточный, ЮВ - юго-восточный, Ю - южный, ЮЗ - юго-западный, З - западный, СЗ - северо-западный.
Видимость - горизонтальная дальность видимости в метрах или километрах. При видимости от 1 до 10 км при отсутствии осадков обычно наблюдается дымка, при ухудшении видимости до 1 км и менее - туман. В сухую погоду видимость может ухудшаться дымом, пылью или мглою.
Явления - указаны атмосферные явления, наблюдавшиеся в срок или в последний час перед сроком; фигурными скобками обозначены явления, наблюдавшиеся между сроками (за 1-3 часа до срока); квадратными скобками обозначены град или гололедные отложения с указанием их диаметра в мм.
Облачность - указаны через наклонную черту общая и нижняя облачность в баллах и высота нижней границы облаков в метрах; квадратными скобками обозначены формы облаков: Ci - перистые, Cs - перисто-слоистые, Cc - перисто-кучевые, Ac - высококучевые, As - высокослоистые, Sc - слоисто-кучевые, Ns - слоисто-дождевые, Cu - кучевые, Cb - кучево-дождевые. Подробнее классификацию облаков см. в Атласе облаков (PDF).
T - Температура воздуха - температура, измеренная на высоте 2 м над землей.
Td - Температура точки росы - температура, при понижении до которой содержащийся в воздухе водяной пар достигнет насыщения.
f - Относительная влажность воздуха - влажноcть воздуха, измеренная на высоте 2 м над землей.
Te - Эффективная температура - температура, которую ощущает одетый по сезону человек в тени. Характеристика душности погоды. При расчете учитывается влияние влажности воздуха и скорости ветра на теплоощущения человека.
Tes - Эффективная температура на солнце - температура, которую ощущает человек, с поправкой на солнечный нагрев. Характеристика знойности погоды. Зависит от высоты солнца над горизонтом, облачности и скорости ветра. Ночью, в пасмурную погоду, а также при ветре 12 м/с и более поправка равна нулю.
P - Атмосферное давление - приведенное к уровню моря атмосферное давление.
Po - Атмосферное давление - измеренное на уровне метеостанции атмосферное давление.
Tmin - Минимальная температура - минимум температуры воздуха на высоте 2 м над землей.
Tmax - Максимальная температура - максимум температуры воздуха на высоте 2 м над землей.
R - Количество осадков - Количество выпавших осадков за период времени, мм. При наведении курсора мыши на число - период времени, за который выпало указанное количество осадков.
R24 - Количество осадков - Количество выпавших осадков за 24 часа, мм.
S - Снежный покров - Высота снежного покрова, см. При наведении курсора мыши на число - состояние снежного покрова и степень покрытия местности в баллах.